When you browse on this site, cookies collect data to enhance your experience and personalize the content and advertising you see.
Visit our Privacy Policy to learn more. By continuing to use the site, you agree to this use of cookies and data.
  • în România
  • Lista ţărilor
  • Pe 7 zile
  • Temperatura apei
  • Meteo pe hartă
  • Widget-uri
  • user-avatar
    Intrare

    Meteo pe oră la Belfast

    Astăzi, 17 Februarie, Luni

    Timp Temperatura Precipitaţii Vânt Presiune Umiditate
    00:00 +2°C° 0 mm 12 m/s 737 mmHg 78%
    01:00 +2°C° 0.2 mm 12 m/s 737 mmHg 82%
    02:00 +2°C° 0.2 mm 12 m/s 738 mmHg 85%
    03:00 +3°C° 0.2 mm 11 m/s 739 mmHg 89%
    04:00 +3°C° 0.1 mm 10 m/s 739 mmHg 88%
    05:00 +3°C° 0.1 mm 9 m/s 740 mmHg 87%
    06:00 +4°C° 0 mm 8 m/s 741 mmHg 89%
    07:00 +4°C° 0 mm 8 m/s 742 mmHg 89%
    08:00 +4°C° 0 mm 7 m/s 743 mmHg 89%
    09:00 +4°C° 0 mm 7 m/s 745 mmHg 88%
    10:00 +4°C° 0.2 mm 8 m/s 746 mmHg 86%
    11:00 +4°C° 0.2 mm 8 m/s 746 mmHg 84%
    12:00 +5°C° 0 mm 9 m/s 747 mmHg 80%
    13:00 +5°C° 0.1 mm 9 m/s 748 mmHg 77%
    14:00 +3°C° 0.1 mm 10 m/s 749 mmHg 74%
    15:00 +3°C° 0.1 mm 10 m/s 749 mmHg 71%
    16:00 +2°C° 0 mm 10 m/s 750 mmHg 73%
    17:00 +1°C° 0 mm 10 m/s 750 mmHg 75%
    18:00 0°C° 0 mm 9 m/s 751 mmHg 77%
    19:00 0°C° 0 mm 9 m/s 752 mmHg 77%
    20:00 0°C° 0 mm 9 m/s 753 mmHg 77%
    21:00 0°C° 0 mm 9 m/s 753 mmHg 77%
    22:00 0°C° 0 mm 9 m/s 754 mmHg 79%
    23:00 0°C° 0 mm 8 m/s 754 mmHg 82%

    Mâine, 18 Februarie, Marţi

    Timp Temperatura Precipitaţii Vânt Presiune Umiditate
    00:00 -1°C° 0 mm 8 m/s 755 mmHg 84%
    01:00 0°C° 0 mm 8 m/s 755 mmHg 85%
    02:00 0°C° 0 mm 8 m/s 755 mmHg 85%
    03:00 0°C° 0 mm 8 m/s 755 mmHg 86%
    04:00 0°C° 0.1 mm 8 m/s 755 mmHg 87%
    05:00 0°C° 0.1 mm 7 m/s 754 mmHg 87%
    06:00 +2°C° 0.1 mm 7 m/s 754 mmHg 88%
    07:00 +2°C° 0.1 mm 7 m/s 754 mmHg 87%
    08:00 +1°C° 0.1 mm 8 m/s 754 mmHg 86%
    09:00 +1°C° 0.1 mm 8 m/s 754 mmHg 85%
    10:00 +2°C° 0.5 mm 8 m/s 754 mmHg 84%
    11:00 +2°C° 0.5 mm 9 m/s 754 mmHg 83%
    12:00 +3°C° 0.5 mm 9 m/s 753 mmHg 82%
    13:00 +2°C° 0.2 mm 9 m/s 753 mmHg 83%
    14:00 +2°C° 0.2 mm 10 m/s 753 mmHg 83%
    15:00 +2°C° 0.2 mm 10 m/s 754 mmHg 84%
    16:00 +1°C° 0.2 mm 9 m/s 754 mmHg 83%
    17:00 0°C° 0.2 mm 8 m/s 754 mmHg 82%
    18:00 -1°C° 0.2 mm 8 m/s 755 mmHg 81%
    19:00 -1°C° 0 mm 8 m/s 755 mmHg 81%
    20:00 -1°C° 0 mm 8 m/s 756 mmHg 81%
    21:00 -1°C° 0 mm 7 m/s 756 mmHg 81%
    22:00 -1°C° 0 mm 7 m/s 757 mmHg 81%
    23:00 -1°C° 0 mm 7 m/s 757 mmHg 80%

    Poimâine, 19 Februarie, Miercuri

    Timp Temperatura Precipitaţii Vânt Presiune Umiditate
    00:00 -1°C° 0 mm 7 m/s 758 mmHg 80%
    01:00 -1°C° 0 mm 7 m/s 758 mmHg 82%
    02:00 -1°C° 0 mm 7 m/s 758 mmHg 83%
    03:00 -1°C° 0 mm 6 m/s 758 mmHg 84%
    04:00 -1°C° 0 mm 6 m/s 758 mmHg 85%
    05:00 -1°C° 0 mm 6 m/s 758 mmHg 85%
    06:00 -1°C° 0 mm 6 m/s 758 mmHg 85%
    07:00 -1°C° 0 mm 6 m/s 757 mmHg 86%
    08:00 0°C° 0 mm 5 m/s 757 mmHg 87%
    09:00 +1°C° 0 mm 5 m/s 757 mmHg 87%
    10:00 +2°C° 0.3 mm 6 m/s 755 mmHg 90%
    11:00 +2°C° 0.3 mm 7 m/s 754 mmHg 92%
    12:00 +3°C° 0.3 mm 7 m/s 753 mmHg 94%
    13:00 +4°C° 0.9 mm 8 m/s 752 mmHg 94%
    14:00 +5°C° 0.9 mm 8 m/s 750 mmHg 94%
    15:00 +6°C° 0.9 mm 8 m/s 749 mmHg 94%
    16:00 +6°C° 0.4 mm 8 m/s 748 mmHg 94%
    17:00 +7°C° 0.4 mm 8 m/s 747 mmHg 94%
    18:00 +7°C° 0.4 mm 8 m/s 747 mmHg 93%
    19:00 +8°C° 0.2 mm 7 m/s 747 mmHg 94%
    20:00 +8°C° 0.2 mm 7 m/s 747 mmHg 94%
    21:00 +8°C° 0.2 mm 6 m/s 746 mmHg 95%
    22:00 +8°C° 0.4 mm 7 m/s 746 mmHg 95%
    23:00 +8°C° 0.4 mm 7 m/s 745 mmHg 94%

    20 Februarie, Joi

    Timp Temperatura Precipitaţii Vânt Presiune Umiditate
    00:00 +8°C° 0.4 mm 7 m/s 744 mmHg 94%
    01:00 +7°C° 0.5 mm 8 m/s 743 mmHg 93%
    02:00 +7°C° 0.5 mm 9 m/s 742 mmHg 92%
    03:00 +7°C° 0.5 mm 10 m/s 740 mmHg 91%
    04:00 +7°C° 0.1 mm 10 m/s 740 mmHg 89%
    05:00 +7°C° 0.1 mm 10 m/s 739 mmHg 88%
    06:00 +7°C° 0.1 mm 10 m/s 739 mmHg 87%
    07:00 +5°C° 1.1 mm 10 m/s 740 mmHg 90%
    08:00 +2°C° 1.1 mm 10 m/s 741 mmHg 93%
    09:00 0°C° 1.1 mm 10 m/s 742 mmHg 96%
    10:00 0°C° 0.6 mm 10 m/s 744 mmHg 91%
    11:00 +1°C° 0.6 mm 10 m/s 745 mmHg 86%
    12:00 +1°C° 0.6 mm 10 m/s 747 mmHg 82%
    13:00 +1°C° 0.1 mm 10 m/s 748 mmHg 78%
    14:00 +1°C° 0.1 mm 10 m/s 749 mmHg 75%
    15:00 +1°C° 0.1 mm 10 m/s 750 mmHg 71%
    16:00 +1°C° 0.1 mm 10 m/s 751 mmHg 76%
    17:00 0°C° 0.1 mm 9 m/s 752 mmHg 81%
    18:00 0°C° 0.1 mm 9 m/s 753 mmHg 86%
    19:00 0°C° 0 mm 9 m/s 754 mmHg 84%
    20:00 0°C° 0 mm 9 m/s 755 mmHg 83%
    21:00 0°C° 0 mm 9 m/s 756 mmHg 81%
    22:00 0°C° 0 mm 9 m/s 757 mmHg 83%
    23:00 0°C° 0 mm 8 m/s 757 mmHg 86%

    21 Februarie, Vineri

    Timp Temperatura Precipitaţii Vânt Presiune Umiditate
    00:00 -1°C° 0 mm 8 m/s 758 mmHg 88%
    01:00 0°C° 0 mm 8 m/s 759 mmHg 87%
    02:00 0°C° 0 mm 8 m/s 759 mmHg 86%
    03:00 0°C° 0 mm 8 m/s 759 mmHg 84%
    04:00 +1°C° 0 mm 8 m/s 759 mmHg 84%
    05:00 +1°C° 0 mm 9 m/s 759 mmHg 84%
    06:00 +2°C° 0 mm 9 m/s 758 mmHg 84%
    13:00 +6°C° 0.3 mm 11 m/s 755 mmHg 88%
    14:00 +6°C° 0.3 mm 11 m/s 754 mmHg 89%
    15:00 +7°C° 0.3 mm 12 m/s 753 mmHg 90%
    16:00 +7°C° 0.3 mm 11 m/s 753 mmHg 90%
    17:00 +8°C° 0.3 mm 11 m/s 753 mmHg 90%
    18:00 +8°C° 0.3 mm 11 m/s 753 mmHg 91%
    19:00 +8°C° 0.1 mm 11 m/s 753 mmHg 90%
    20:00 +8°C° 0.1 mm 10 m/s 753 mmHg 89%
    21:00 +9°C° 0.1 mm 10 m/s 753 mmHg 88%
    22:00 +8°C° 0 mm 10 m/s 753 mmHg 87%
    23:00 +7°C° 0 mm 10 m/s 754 mmHg 86%

    22 Februarie, Sâmbătă

    Timp Temperatura Precipitaţii Vânt Presiune Umiditate
    00:00 +6°C° 0 mm 9 m/s 754 mmHg 85%
    01:00 +6°C° 0 mm 9 m/s 754 mmHg 85%
    02:00 +5°C° 0 mm 9 m/s 754 mmHg 84%
    03:00 +5°C° 0 mm 9 m/s 754 mmHg 84%
    04:00 +5°C° 0 mm 10 m/s 754 mmHg 83%
    05:00 +5°C° 0 mm 10 m/s 754 mmHg 82%
    06:00 +5°C° 0 mm 10 m/s 755 mmHg 81%
    07:00 +5°C° 0.1 mm 10 m/s 755 mmHg 82%
    08:00 +5°C° 0.1 mm 10 m/s 756 mmHg 83%
    09:00 +3°C° 0.1 mm 10 m/s 756 mmHg 85%
    10:00 +5°C° 0 mm 10 m/s 757 mmHg 82%
    11:00 +5°C° 0 mm 10 m/s 757 mmHg 80%
    12:00 +6°C° 0 mm 10 m/s 758 mmHg 77%
    13:00 +6°C° 0.1 mm 10 m/s 758 mmHg 77%
    14:00 +6°C° 0.1 mm 9 m/s 758 mmHg 76%
    15:00 +6°C° 0.1 mm 9 m/s 758 mmHg 75%
    16:00 +5°C° 0 mm 8 m/s 758 mmHg 78%
    17:00 +5°C° 0 mm 8 m/s 759 mmHg 80%
    18:00 +4°C° 0 mm 7 m/s 759 mmHg 82%
    19:00 +4°C° 0 mm 7 m/s 759 mmHg 82%
    20:00 +4°C° 0 mm 7 m/s 759 mmHg 83%
    21:00 +4°C° 0 mm 6 m/s 759 mmHg 83%
    22:00 +5°C° 0.1 mm 6 m/s 759 mmHg 85%
    23:00 +5°C° 0.1 mm 6 m/s 759 mmHg 87%
    Arată mai mult